DELTA 1 DEB, 21914

Orbit data source: Space-Track

DELTA 1 DEB, 21914 is space debris in SSO originally from a launch on Thu, 12 Jun 1975 UTC launched from the Air Force Western Test Range (AFWTR). Debris objects in space refer to the collection of defunct objects orbiting the Earth. Examples of debris include non-operational satellites, rocket bodies, and fragments generated from explosions, collisions, or faulty payload assembly.

Loading next visibility...
Identifier
21914, 1975-052JS
Orbit
SSO
Country
Flag of USUS
Related business
Manufacturer
Unknown
Mission
Spacecraft
Bus & Motor
Unknown
Mass
Unknown
Launch date (UTC)
1975-06-12 (51 years ago)
Launch vehicle
Unknown
Launch site
Air Force Western Test Range (AFWTR)
Object type
Payload
Rocket body
Debris
Shape & HBR
Unknown shape, 0.1 m
Radar Cross Section
Medium (>0.1 m² and <1 m²)

Expand to show TLE details & history
Last TLE update: 2 days ago

TLE from 2 days ago
0 DELTA 1 DEB
1 21914U 75052JS  26167.60632545  .00000046  00000-0  39644-3 0  9998
2 21914  99.4409 184.9032 0635151  89.6586  34.5753 12.13876873526358
Epoch: 2026-06-16T14:33Z
TLE epoch observation values (Epoch: 2026-06-16T14:33:06.518Z)
Latitude
50.48796°
Longitude
-106.67777°
Altitude
1,220.159 km
Speed
7.431 km/s
True Right ascension
01h 05m 54s
True Declination
50° 19' 46"
Sunlit
Object was in daylight at epoch
Visualization orbit readout
Latitude
Unknown
Longitude
Unknown
Altitude
Unknown
Speed
Unknown
Apparent Right ascension
Unknown
Apparent Declination
Unknown
Sunlit
N/A
Visualization observer readout
Local Sidereal Time
21:42:52
Azimuth
Unknown
Elevation
Unknown
Doppler factor
Unknown
Orbital elements
Apogee altitude
2,124.58 km
Perigee altitude
1,108.984 km
Semi-major axis
7,994.919 km
Eccentricity
0.06352
Inclination
99.4409°
RAAN
184.9032°
Arg. of periapsis
89.6586°
True anomaly
38.98926°
Mean anomaly
34.5753°
Eccentric anomaly
36.75284°
Mean motion
3.03614 °/min
Orbital period
118.57 mins
BSTAR
0.00039644
Loading maneuver chart data...
Computing Atmospheric mass density...
Loading historical data...
Loading historical data...
Loading historical data...
Loading historical data...
Loading historical data...
Loading historical data...
Loading historical data...

Documentation

Showing up to 5 results
|